FLOCK 3P-50

Last updated on Wed Feb 14 2018 16:20:32 GMT+0000 (Greenwich Mean Time)

1 42029U 17008CK 18045.41089282 .00001802 00000-0 77567-4 0 9992 2 42029 97.4666 111.0261 0009704 85.3463 274.8882 15.23886139 54585
UTC large
Height (km)
Speed (km/s)
/
Latitude / Longitude
Inclination (degrees)
Orbital Period (minutes)
Azimuth
Elevation
Range (km)
Doppler Factor

Next 0 passes for location: London (51.5072 / 0.1276)

Sorry there are no passes over London.